OE1HTB-13 Weather Reports


time (UTC)temp
F
wind
direction
speed
knots
gust
knots
rain 1hr
in
rain 24hr
in
rain mn
in
humidity
%
barometer
mb
20260905223113 64 144 1.7 4.3 0.00 0.06 0.00 71 1021.8
20260905221612 64 299 1.7 5.2 0.00 0.06 0.00 70 1021.5
20260905220111 64 215 1.7 4.3 0.00 0.06 0.00 70 1021.4
20260905214611 64 29 0.9 2.6 0.00 0.06 0.06 70 1021.2
20260905213112 65 244 1.7 5.2 0.00 0.06 0.06 69 1020.9
20260905211611 65 92 0.9 7.0 0.00 0.06 0.06 68 1020.9
20260905210111 66 171 1.7 5.2 0.00 0.06 0.06 66 1020.7
20260905204611 67 95 1.7 7.0 0.00 0.06 0.06 64 1020.8
20260905203111 67 246 1.7 7.8 0.00 0.06 0.06 64 1020.6
20260905201611 67 44 1.7 8.7 0.00 0.06 0.06 65 1020.6
20260905200110 67 121 0.9 7.0 0.00 0.06 0.06 65 1020.6
20260905194611 66 334 1.7 5.2 0.00 0.06 0.06 67 1020.3
20260905193110 67 70 0.9 4.3 0.00 0.06 0.06 66 1020.3
20260905191610 67 159 1.7 6.1 0.00 0.06 0.06 65 1020.2
20260905190110 67 74 0.9 5.2 0.00 0.06 0.06 65 1020.0
20260905184615 68 9 1.7 5.2 0.00 0.06 0.06 63 1019.8
20260905183115 68 161 0.9 5.2 0.00 0.06 0.06 63 1019.6
20260905181615 68 317 1.7 6.1 0.00 0.06 0.06 62 1019.4
20260905180115 68 172 1.7 6.1 0.00 0.06 0.06 61 1019.2
20260905174614 69 340 0.9 6.1 0.00 0.06 0.06 60 1019.0
20260905173114 69 66 1.7 5.2 0.00 0.06 0.06 59 1018.9
20260905171614 70 265 1.7 6.1 0.00 0.06 0.06 58 1018.6
20260905170114 70 324 0.9 3.5 0.00 0.06 0.06 57 1018.7
20260905164614 71 216 1.7 6.1 0.00 0.06 0.06 55 1018.5
20260905163114 71 279 1.7 6.1 0.00 0.06 0.06 56 1018.4
20260905161614 71 308 1.7 5.2 0.00 0.06 0.06 55 1018.1
20260905160114 72 296 1.7 7.0 0.00 0.06 0.06 55 1018.2
20260905154613 73 101 2.6 7.8 0.00 0.06 0.06 54 1018.1
20260905153113 73 263 1.7 7.0 0.00 0.06 0.06 53 1018.0
20260905151613 74 328 1.7 8.7 0.00 0.06 0.06 53 1017.8
20260905150113 75 173 1.7 7.0 0.00 0.06 0.06 51 1017.8
20260905144613 77 360 2.6 9.6 0.00 0.06 0.06 49 1017.8
20260905143114 77 317 1.7 5.2 0.00 0.06 0.06 50 1017.8
20260905141613 76 94 2.6 9.6 0.00 0.06 0.06 51 1017.9
20260905140113 77 355 2.6 8.7 0.00 0.06 0.06 52 1018.0
20260905134612 75 136 2.6 7.8 0.00 0.06 0.06 54 1018.0
20260905133112 76 309 1.7 7.8 0.00 0.06 0.06 52 1018.0
20260905131613 74 278 2.6 9.6 0.00 0.06 0.06 54 1018.2
20260905130112 75 132 2.6 9.6 0.00 0.06 0.06 54 1018.3
20260905124613 76 84 2.6 8.7 0.00 0.06 0.06 55 1018.1
20260905123112 75 232 3.5 8.7 0.00 0.06 0.06 55 1018.3
20260905121612 74 331 2.6 9.6 0.00 0.06 0.06 56 1018.5
20260905120111 74 199 2.6 8.7 0.00 0.06 0.06 54 1018.3
20260905114611 74 26 2.6 10.4 0.00 0.06 0.06 55 1018.2
20260905113111 70 120 3.5 9.6 0.00 0.06 0.06 62 1018.4
20260905111611 74 293 3.5 8.7 0.00 0.06 0.06 59 1018.5
20260905110112 72 234 2.6 12.2 0.00 0.06 0.06 60 1018.4
20260905104613 71 142 2.6 12.2 0.00 0.06 0.06 62 1018.4
20260905103111 71 123 3.5 10.4 0.00 0.06 0.06 70 1018.4
20260905101610 69 67 2.6 8.7 0.00 0.06 0.06 71 1018.5
20260905100110 67 261 2.6 9.6 0.00 0.06 0.06 74 1018.5
20260905094611 64 236 1.7 7.8 0.00 0.06 0.06 77 1018.4
20260905093111 64 243 2.6 6.1 0.01 0.06 0.06 75 1018.5
20260905091610 63 337 2.6 6.1 0.01 0.06 0.06 80 1018.4
20260905090110 62 309 1.7 7.8 0.01 0.06 0.06 81 1018.3
20260905084610 61 157 1.7 6.1 0.01 0.06 0.06 82 1018.2
20260905083111 61 208 1.7 6.1 0.00 0.05 0.05 82 1018.4
20260905081614 61 319 1.7 7.0 0.00 0.05 0.05 80 1018.7
20260905080114 61 236 0.9 6.1 0.00 0.05 0.05 81 1018.7
20260905074614 60 43 0.9 2.6 0.00 0.05 0.05 84 1019.0
20260905073114 60 165 0.9 3.5 0.00 0.05 0.05 83 1019.0
20260905071614 60 196 1.7 5.2 0.00 0.05 0.05 82 1018.8
20260905070115 60 198 1.7 6.1 0.00 0.05 0.05 83 1018.0
20260905064614 60 207 1.7 7.0 0.00 0.05 0.05 80 1018.8
20260905063113 61 173 1.7 7.0 0.00 0.05 0.05 78 1018.7
20260905061613 62 203 2.6 7.8 0.00 0.05 0.05 73 1017.5
20260905060113 62 212 3.5 11.3 0.00 0.05 0.05 70 1017.2
20260905054613 62 346 1.7 5.2 0.00 0.05 0.05 75 1016.7
20260905053113 62 247 1.7 7.0 0.00 0.05 0.05 75 1016.7
20260905051613 61 232 1.7 7.0 0.00 0.05 0.05 78 1015.8
20260905050113 61 143 2.6 8.7 0.00 0.05 0.05 79 1015.3
20260905044612 60 194 1.7 13.9 0.01 0.05 0.05 84 1014.5
20260905043112 61 121 1.7 7.0 0.04 0.05 0.05 84 1015.3
20260905041612 62 272 0.9 2.6 0.04 0.05 0.05 85 1015.0
20260905040112 63 232 1.7 4.3 0.04 0.05 0.05 82 1014.8
20260905034612 65 319 2.6 8.7 0.03 0.04 0.04 76 1014.6
20260905033112 67 5 2.6 7.8 0.00 0.01 0.01 70 1014.4
20260905031611 68 254 3.5 10.4 0.00 0.01 0.01 71 1014.2
20260905030113 68 360 2.6 12.2 0.01 0.01 0.01 75 1013.3
20260905024611 68 34 0.9 3.5 0.01 0.01 0.01 82 1012.4
20260905023111 69 327 0.9 3.5 0.01 0.01 0.01 79 1012.0
20260905021611 71 297 2.6 4.3 0.01 0.01 0.01 70 1012.0
20260905020111 73 236 0.0 3.5 0.00 0.00 0.00 54 1012.3
20260905014610 73 5 0.9 3.5 0.00 0.00 0.00 54 1011.9
20260905013110 73 86 0.0 4.3 0.00 0.00 0.00 54 1011.9
20260905011610 73 89 0.0 1.7 0.00 0.00 0.00 55 1011.7
20260905010110 73 213 0.0 2.6 0.00 0.00 0.00 53 1011.7
20260905004610 73 136 0.9 5.2 0.00 0.00 0.00 53 1011.6
20260905003110 73 19 0.9 2.6 0.00 0.00 0.00 54 1011.7
20260905001610 72 173 0.9 2.6 0.00 0.00 0.00 54 1011.5
20260905000111 72 20 0.9 2.6 0.00 0.00 0.00 55 1011.4
20260904234609 72 76 1.7 4.3 0.00 0.00 0.00 55 1011.4
20260904233109 72 51 0.9 4.3 0.00 0.00 0.00 55 1011.4
20260904231614 72 355 0.9 1.7 0.00 0.00 0.00 55 1011.4
20260904230114 72 310 0.9 1.7 0.00 0.00 0.00 56 1011.2
20260904224614 72 310 0.9 3.5 0.00 0.00 0.00 55 1011.1